Home > Weather > Newport > Past weeks

Flag for United Kingdom Weather for the Past 2 Weeks in Newport, Wales, United Kingdom

Now
36 °F

Chilly.


Feels Like: 28 °F
Forecast: N/A
Wind: 10 mph from North

Location: Bristol / Lulsgate

Current Time: Feb 14, 2016 at 7:18:29 PM

Latest Report: Feb 14, 2016 at 6:50 PM


Visibility: N/A

Pressure: 29.74 "Hg

Humidity: 65%

Dew point: 25 °F

Location of NewportLocation

Historic Weather in Newport — Graph

°F

Newport Temperature Yesterday

Maximum temperature yesterday: 37 °F (at 12:20 AM)
Minimum temperature yesterday: 36 °F (at 8:20 AM)
Average temperature yesterday: 37 °F

High & Low Weather Summary for the Past Weeks

 TemperatureHumidityPressure
High54 °F (Feb 1, 1:50 PM)100% (Jan 31, 8:50 AM)30.39 "Hg (Jan 31, 8:50 AM)
Low34 °F (Feb 10, 10:50 PM)56% (Feb 14, 4:20 PM)29.00 "Hg (Feb 8, 4:20 AM)
Average42 °F87%29.61 "Hg
* Reported Jan 30 6:20 PM — Feb 14 6:20 PM, Newport, Weather by CustomWeather, © 2016

Note: Actual official high and low records may vary slightly from our data, if they occured in-between our weather recording intervals... More about our weather records

Advertising

Newport Weather History for the Previous 24 Hours

 ConditionsComfort  
Time TempWeatherWind HumidityBarometerVisibility
6:20 PM
Sun, Feb 14
37 °FChilly.10 mph65%29.71 "HgN/A
5:50 PM37 °FPassing clouds.10 mph65%29.68 "HgN/A
5:20 PM37 °FPassing clouds.9 mph65%29.65 "HgN/A
4:50 PM37 °FPassing clouds.15 mph60%29.62 "HgN/A
4:20 PM39 °FChilly.18 mph56%29.62 "HgN/A
3:50 PM39 °FPassing clouds.16 mph65%29.59 "HgN/A
3:20 PM39 °FPassing clouds.17 mph65%29.56 "HgN/A
2:50 PM41 °FPassing clouds.16 mph61%29.53 "HgN/A
2:20 PM39 °FScattered clouds.18 mph70%29.50 "HgN/A
1:50 PM41 °FPartly sunny.18 mph70%29.50 "HgN/A
1:20 PM41 °FPartly sunny.16 mph70%29.47 "HgN/A
12:50 PM39 °FPartly sunny.16 mph81%29.47 "HgN/A
12:20 PM41 °FScattered clouds.17 mph76%29.45 "HgN/A
11:50 AM39 °FScattered clouds.14 mph81%29.42 "HgN/A
11:20 AM39 °FScattered clouds.15 mph81%29.42 "HgN/A
10:50 AM37 °FPassing clouds.14 mph87%29.39 "HgN/A
10:20 AM37 °FChilly.17 mph87%29.39 "HgN/A
9:50 AM36 °FScattered clouds.14 mph93%29.36 "HgN/A
9:20 AM34 °FChilly.13 mph100%29.33 "Hg6 mi
8:50 AM34 °FPassing clouds.13 mph93%29.33 "Hg5 mi
8:20 AM34 °FPartly sunny.12 mph100%29.30 "Hg4 mi
7:20 AM34 °FLow clouds.12 mph100%29.27 "Hg4 mi
6:50 AM34 °FLow clouds.9 mph100%29.27 "Hg4 mi
6:20 AM34 °FFog.8 mph100%29.24 "Hg3 mi
5:50 AM34 °FFog.9 mph100%29.24 "Hg2 mi
5:20 AM34 °FFog.9 mph100%29.24 "Hg2 mi
4:50 AM34 °FFog.12 mph100%29.21 "Hg3 mi
4:20 AM36 °FFog.12 mph93%29.21 "Hg2 mi
3:50 AM36 °FFog.10 mph93%29.18 "Hg2 mi
3:20 AM36 °FFog.9 mph93%29.18 "Hg2 mi
2:50 AM36 °FFog.8 mph93%29.18 "Hg2 mi
2:20 AM36 °FFog.9 mph93%29.18 "Hg2 mi
1:20 AM36 °FFog.12 mph93%29.18 "Hg2 mi
12:50 AM36 °FFog.12 mph93%29.18 "Hg2 mi
12:20 AM36 °FFog.12 mph93%29.18 "Hg2 mi
11:50 PM
Sat, Feb 13
36 °FFog.12 mph93%29.18 "Hg2 mi
11:20 PM36 °FFog.12 mph93%29.18 "Hg2 mi
10:50 PM36 °FFog.12 mph93%29.18 "Hg2 mi
10:20 PM36 °FFog.10 mph93%29.18 "Hg2 mi
9:50 PM36 °FFog.13 mph93%29.15 "Hg2 mi
9:20 PM36 °FFog.12 mph93%29.15 "Hg2 mi
8:50 PM36 °FFog.10 mph100%29.15 "Hg3 mi
8:20 PM36 °FDrizzle. Mostly cloudy.12 mph100%29.15 "Hg2 mi
7:50 PM36 °FDrizzle. Low clouds.10 mph100%29.15 "Hg2 mi
7:20 PM36 °FRain. Low clouds.10 mph100%29.15 "Hg2 mi
Weather by CustomWeather, © 2016

See weather overviewHow to use our weather pages